This is the latest recevied weather packets stored in our database for station/object EA1FWM-12. If no packets are shown the sender has not sent any weather packets the latest 10 day(s).
| Time | Temp. | Humidity | Pressure | Rain* | Wind** | Luminosity | Snow |
|---|---|---|---|---|---|---|---|
| 1787759313 | 20° C | 64% | 1011.7 hPa | - | - | - | - |
| 1787755715 | 19.44° C | 65% | 1012 hPa | - | - | - | - |
| 1787754815 | 18.89° C | 64% | 1012 hPa | - | - | - | - |
| 1787753915 | 18.89° C | 65% | 1011.9 hPa | - | - | - | - |
| 1787753015 | 18.33° C | 67% | 1012 hPa | - | - | - | - |
| 1787752115 | 17.22° C | 68% | 1012.1 hPa | - | - | - | - |
| 1787751216 | 17.22° C | 69% | 1012 hPa | - | - | - | - |
| 1787749416 | 18.33° C | 72% | 1012.4 hPa | - | - | - | - |
| 1787747616 | 14.44° C | 75% | 1011.5 hPa | - | - | - | - |
| 1787745818 | 13.89° C | 76% | 1013.2 hPa | - | - | - | - |
| 1787744019 | 14.44° C | 76% | 1012.8 hPa | - | - | - | - |
| 1787742228 | 14.44° C | 79% | 1012.7 hPa | - | - | - | - |
| 1787740428 | 14.44° C | 83% | 1013 hPa | - | - | - | - |
| 1787739521 | 13.89° C | 87% | 1012.8 hPa | - | - | - | - |
| 1787738622 | 13.33° C | 88% | 1013.3 hPa | - | - | - | - |
| 1787736825 | 13.33° C | 87% | 1014.2 hPa | - | - | - | - |
| 1787735926 | 13.33° C | 86% | 1014.4 hPa | - | - | - | - |
| 1787735025 | 16.11° C | 84% | 1014.4 hPa | - | - | - | - |
| 1787733978 | 13.89° C | 84% | 1014.6 hPa | - | - | - | - |
| 1787733071 | 14.44° C | 83% | 1014.6 hPa | - | - | - | - |
| 1787732171 | 15° C | 82% | 1014.7 hPa | - | - | - | - |
| 1787731271 | 15.56° C | 82% | 1014.2 hPa | - | - | - | - |
| 1787730371 | 15.56° C | 82% | 1014.1 hPa | - | - | - | - |
| 1787729472 | 15.56° C | 82% | 1014 hPa | - | - | - | - |
| 1787728573 | 15.56° C | 82% | 1013.9 hPa | - | - | - | - |
* Rain since midnight (hover to see other rain measurements)
** Current wind speed in m/s (hover to see current wind gust speed)